Content
SEND FEEDBACK

Daily
Averages
Monthly
Summary
United States of America

GLEN BURNIE, MARYLAND


Home > North America > United States > Maryland
Elevation: 139 feet     Latitude: 39 11N     Longitude: 076 40W

WEATHER
 
SELECT A DAY
Number of Records: 196,945;   Date Range: 1/1/95 - 8/25/14
 
SHARE

PRINT THIS DATA

[ ← Previous Day ]
WEATHER ALMANAC - JANUARY 23, 2013
[ Next Day → ]
[ °C ]   °F
Weather ElementAverageHighLow
Temperature19.8 °F25 °F (3:54 pm)12.9 °F (4:54 am)
Dewpoint-1.2 °F1.9 °F (11:54 pm)-4 °F (11:54 am)
Humidity40.9 %59 % (5:54 am)30 % (3:54 pm)
Barometer30.26 in30.35 in (9:54 am)30.16 in (11:54 pm)
Wind Speed7.8 mph15 mph (11:54 am)
Wind Gust23 mph (11:54 am)
Weather ElementAverage
Visibility10 mi
Wind DirectionWSW (242.2 °)

Weather ElementTotal
Precipitation---
Heating Degree Days46.1 (Base 65)
Averaged from 23 records on January 23, 2013
WEATHER CONDITIONS BREAKOUT
WIND DIRECTION BREAKOUT
WEATHER BY HOUR - JANUARY 23, 2013
[ °C ]   °F
Local TimeTemperatureDewpointHumidityBarometerVisibilityWind DirectionWind SpeedGust SpeedPrecipitationEventsConditions
1:54 AM15.1 °F-0.9 °F49 %30.30 in10.0 miWNW (290°)5.8 mphMostly Cloudy
2:54 AM15.1 °F-0.9 °F49 %30.31 in10.0 miWNW (290°)5.8 mphMostly Cloudy
3:54 AM14.0 °F-0.9 °F52 %30.30 in10.0 miWNW (300°)5.8 mphScattered Clouds
4:54 AM12.9 °F0.0 °F56 %30.31 in10.0 miCalmPartly Cloudy
5:54 AM12.9 °F1.0 °F59 %30.32 in10.0 miWest (270°)5.8 mphClear
6:54 AM12.9 °F1.0 °F59 %30.32 in10.0 miWest (270°)5.8 mphScattered Clouds
7:54 AM14.0 °F1.0 °F56 %30.33 in10.0 miWest (270°)9.2 mphScattered Clouds
8:54 AM17.1 °F0.0 °F47 %30.34 in10.0 miWest (270°)10.4 mphScattered Clouds
9:54 AM18.0 °F-2.0 °F41 %30.35 in10.0 miWest (270°)11.5 mph18.4 mphScattered Clouds
10:54 AM19.9 °F-2.9 °F37 %30.34 in10.0 miWNW (290°)13.8 mphScattered Clouds
11:54 AM21.0 °F-4.0 °F33 %30.30 in10.0 miWNW (290°)15.0 mph23.0 mphScattered Clouds
12:54 PM21.9 °F-4.0 °F32 %30.26 in10.0 miWNW (300°)15.0 mph23.0 mphScattered Clouds
1:54 PM24.1 °F-2.9 °F31 %30.23 in10.0 miWest (280°)13.8 mph19.6 mphMostly Cloudy
2:54 PM23.0 °F-2.9 °F32 %30.23 in10.0 miWNW (290°)8.1 mphMostly Cloudy
3:54 PM25.0 °F-2.9 °F30 %30.22 in10.0 miWNW (290°)10.4 mphMostly Cloudy
4:54 PM24.1 °F-2.0 °F32 %30.22 in10.0 miWNW (290°)5.8 mphMostly Cloudy
5:54 PM24.1 °F-0.9 °F34 %30.21 in10.0 miWest (280°)5.8 mphOvercast
6:54 PM24.1 °F-2.9 °F31 %30.21 in10.0 miWNW (300°)6.9 mphOvercast
7:54 PM24.1 °F-2.9 °F31 %30.19 in10.0 miNW (310°)3.5 mphOvercast
8:54 PM23.0 °F-0.9 °F35 %30.19 in10.0 miNW (310°)3.5 mphOvercast
9:54 PM24.1 °F-0.9 °F34 %30.19 in10.0 miCalmOvercast
10:54 PM23.0 °F1.4 °F39 %30.17 in10.0 miENE (60°)8.1 mphOvercast
11:54 PM21.9 °F1.9 °F42 %30.16 in10.0 miNE (50°)9.2 mphOvercast
Hourly data recorded from KBWI, located miles away from Glen Burnie, Maryland







STORIES FROM OUR PARTNERS